Terminal Aerodrome Forecast
Issued by NWS Huntsville, AL

Home | Current Version | Previous Version | Text Only | Print | Product List | Glossary On
Versions: 1 2 3 4 5 6 7 8 9 10 11 12 13 14 15 16 17 18 19 20 21 22 23 24 25
000
FTUS44 KHUN 300520
TAFMSL
TAF
KMSL 300520Z 3006/0106 21005KT P6SM VCTS SCT060CB BKN250
      TEMPO 3008/3012 5SM TSRA BKN040CB
     FM301500 25010G20KT P6SM VCTS SCT040CB BKN100
      TEMPO 3017/3021 4SM -TSRA BR BKN030CB
     FM302300 24005KT P6SM SCT250=

USA.gov is the U.S. government's official web portal to all federal, state and local government web resources and services.